Location: Baia Mare
(47.6567°N, 23.5850°E)
Time: 23:43:50
(UTC+03:00)

ISS - Pass Details

Date: 01 November 2018
Orbit: 403 x 408 km, 51.6° (Epoch: 17 October)

Event Time Altitude Azimuth Distance (km) Brightness Sun altitude
Exits shadow 05:10:24 70° 145° (SE) 434 -3.7 -20.5°
Drops below altitude 10° 05:13:37 10° 69° (ENE) 1,465 0.0 -19.9°
Sets 05:15:43 0° 67° (ENE) 2,328 1.2 -19.6°
